Regional Weather Roundup
Issued by NWS

Home | Current Version | Previous Version | Text Only | Print | Product List | Glossary Off
Versions: 1 2 3 4 5 6 7 8 9 10 11 12 13 14 15 16 17 18 19 20 21 22 23 24 25 26 27 28 29 30 31 32 33 34 35 36 37 38 39 40 41 42 43 44 45 46 47 48 49 50

000
ASUS43 KBIS 061010
RWRND

NORTH DAKOTA REGIONAL WEATHER ROUNDUP
NATIONAL WEATHER SERVICE BISMARCK ND
400 AM CST SAT FEB 06 2016

NOTE: "FAIR" INDICATES FEW OR NO CLOUDS BELOW 12,000 FEET WITH NO
SIGNIFICANT WEATHER AND/OR OBSTRUCTIONS TO VISIBILITY.


NDZ001>003-009>011-017-061100-
NORTHWEST NORTH DAKOTA

CITY           SKY/WX    TMP DP  RH WIND       PRES   REMARKS
WILLISTON      CLOUDY    30  25  81 SW6       29.82F
MINOT          CLOUDY    36  22  56 SW14      29.79F
MINOT AFB      CLOUDY    31  28  88 SW1       29.78F
$$

NDZ018>021-031>035-040>046-061100-
SOUTHWEST NORTH DAKOTA

CITY           SKY/WX    TMP DP  RH WIND       PRES   REMARKS
BISMARCK       CLOUDY    31  22  69 SW5       29.92F
DICKINSON      CLOUDY    33  22  63 W17       29.87F
GARRISON         N/A     27  22  81 CALM      29.84F
HETTINGER ARPT CLOUDY    28  20  71 W8        29.96F WCI  20
$$

NDZ004>008-012>016-024-026-027-054-061100-
NORTHEAST NORTH DAKOTA

CITY           SKY/WX    TMP DP  RH WIND       PRES   REMARKS
GRAND FORKS    CLOUDY    23  18  81 S8        29.95F WCI  14
GRND FRKS AFB  CLOUDY    21  17  86 S7        29.93F WCI  12
DEVILS LAKE    CLOUDY    21  18  88 S5        29.87F WCI  15
$$

NDZ022-023-025-028>030-036>039-047>053-061100-
SOUTHEAST NORTH DAKOTA

CITY           SKY/WX    TMP DP  RH WIND       PRES   REMARKS
FARGO          CLOUDY    23  17  78 S10       29.99F WCI  12
JAMESTOWN      CLOUDY    29  23  78 SW9       29.91F
$$




USA.gov is the U.S. government's official web portal to all federal, state and local government web resources and services.